Location: ?????
(54.9266°N, 38.5527°E)
Time: 08:09:44
(UTC+00:00)

ATLAS 5 CENTAUR R/B - Visible Passes

Search period start: 22 July 2024 00:00
Search period end: 01 August 2024 00:00
Orbit: 416 x 1166 km, 63.3° (Epoch: 21 July)

Date Brightness Start Highest point End Pass type
(mag) Time Alt. Az. Time Alt. Az. Time Alt. Az.
22 Jul 3.7 19:39:49 10° WNW 19:43:08 26° N 19:47:02 10° ENE visible
22 Jul 3.0 21:23:43 10° NW 21:27:46 42° NNE 21:32:44 10° E visible
22 Jul 1.9 23:07:13 10° NW 23:11:46 66° SW 23:17:26 10° SE visible
23 Jul 3.7 19:08:50 10° WNW 19:12:06 26° N 19:15:56 10° ENE visible
23 Jul 3.1 20:52:51 10° NW 20:56:48 37° NNE 21:01:33 10° E visible
23 Jul 1.8 22:36:21 10° NW 22:40:53 79° SW 22:46:34 10° SE visible
24 Jul 3.3 00:20:38 10° WNW 00:24:20 21° WSW 00:28:34 10° SSW visible
24 Jul 3.6 18:37:47 10° WNW 18:41:02 26° N 18:44:50 10° NE visible
24 Jul 3.3 20:21:58 10° NW 20:25:46 34° NNE 20:30:21 10° E visible
24 Jul 1.8 22:05:28 10° NW 22:09:58 87° NE 22:15:36 10° SE visible
24 Jul 3.0 23:49:28 10° WNW 23:53:30 26° WSW 23:58:13 10° S visible
25 Jul 3.4 19:51:01 10° NW 19:54:41 31° NNE 19:59:06 10° ENE visible
25 Jul 2.0 21:34:33 10° NW 21:38:59 74° NE 21:44:32 10° ESE visible
25 Jul 2.8 23:18:22 10° WNW 23:22:37 31° SW 23:27:41 10° S visible
26 Jul 3.4 19:20:01 10° NW 19:23:35 29° NNE 19:27:49 10° ENE visible
26 Jul 2.2 21:03:36 10° NW 21:07:58 63° NE 21:13:23 10° ESE visible
26 Jul 2.5 22:47:17 10° WNW 22:51:42 38° SW 22:55:48 16° S visible
27 Jul 3.5 18:48:57 10° NW 18:52:25 27° N 18:56:30 10° ENE visible
27 Jul 2.4 20:32:38 10° NW 20:36:54 54° NNE 20:42:10 10° ESE visible
27 Jul 2.2 22:16:13 10° WNW 22:20:42 46° SW 22:24:20 20° SSE visible
28 Jul 4.0 00:02:24 10° W 00:03:47 11° WSW 00:04:57 10° SW visible
28 Jul 3.5 18:17:50 10° NW 18:21:13 26° N 18:25:11 10° ENE visible
28 Jul 2.7 20:01:38 10° NW 20:05:46 46° NNE 20:10:53 10° ESE visible
28 Jul 2.0 21:45:09 10° NW 21:49:41 57° SW 21:53:09 22° SSE visible
28 Jul 3.8 23:30:15 10° W 23:32:53 14° WSW 23:33:47 14° SW visible
29 Jul 2.8 19:30:35 10° NW 19:34:36 41° NNE 19:39:31 10° E visible
29 Jul 1.9 21:14:04 10° NW 21:18:36 69° SW 21:22:09 22° SSE visible
29 Jul 3.6 22:58:36 10° WNW 23:01:57 18° WSW 23:02:48 17° SW visible
30 Jul 3.0 18:59:29 10° NW 19:03:24 36° NNE 19:08:07 10° E visible
30 Jul 1.8 20:42:58 10° NW 20:47:29 83° SW 20:51:15 21° SE visible
30 Jul 3.3 22:27:10 10° WNW 22:30:56 22° WSW 22:31:54 21° SW visible
31 Jul 3.1 18:28:21 10° NW 18:32:07 33° NNE 18:36:39 10° E visible
31 Jul 1.8 20:11:51 10° NW 20:16:20 84° NE 20:20:26 18° SE visible
31 Jul 3.1 21:55:47 10° WNW 21:59:52 27° SW 22:01:06 25° SW visible
